229  
ASUS44 KHUN 161110  
RWRHUN  
 
WEATHER ROUNDUP FOR THE TENNESSEE VALLEY  
NATIONAL WEATHER SERVICE HUNTSVILLE AL  
600 AM CDT WED OCT 16 2019  
 
ALZ001>004-161200-  
NORTHWEST ALABAMA  
 
CITY SKY/WX TMP DP RH WIND PRES REMARKS
 
SHOALS AIRPORT CLOUDY 65 62 90 NW9 29.87R  

 
 
ALZ005>007-016-161200-  
NORTH CENTRAL ALABAMA  
 
CITY SKY/WX TMP DP RH WIND PRES REMARKS
 
DECATUR AP LGT RAIN 65 64 97 NW14G22 29.84R  
HUNTSVILLE AP LGT RAIN 65 65 100 NW6 29.83R FOG  
HUN NWS/UAH N/A 65 61 86 NW5 N/A  
MERIDIANVILLE RAIN 65 63 93 W7 29.84R  
VINEMONT AP PTSUNNY 64 62 93 CALM 29.86S  

 
 
ALZ008>010-161200-  
NORTHEAST ALABAMA  
 
CITY SKY/WX TMP DP RH WIND PRES REMARKS
 
ALBERTVILLE CLOUDY 64 63 94 W6 29.83S  
FORT PAYNE N/A 64 64 99 CALM 29.81F FOG  
SCOTTSBORO AP MOCLDY 66 66 100 SW3 29.82S FOG  

 
 
TNZ076-096-097-161200-  
SOUTHEASTERN MIDDLE TENNESSEE  
 
CITY SKY/WX TMP DP RH WIND PRES REMARKS
 
FAYETTEVILLE CLOUDY 63 63 100 NW8 29.84R  
TULLAHOMA MOCLDY 61 59 94 W7 29.83R  
WINCHESTER CLOUDY 61 59 94 W3 29.83S  

 
   
..SURROUNDING SITES
 
 
 
CITY SKY/WX TMP DP RH WIND PRES REMARKS
 
ATLANTA DRIZZLE 65 62 90 CALM 29.81S FOG  
ANNISTON LGT RAIN 68 66 93 W6 29.83S  
BIRMINGHAM CLOUDY 68 66 93 W8 29.88R  
CHATTANOOGA CLOUDY 64 63 96 S5 29.80S  
CORINTH CLOUDY 59 52 77 NW13 29.93R  
DALTON LGT RAIN 63 61 94 CALM 29.83S  
GADSDEN CLOUDY 66 64 94 W7 29.83F  
GOLDEN TRNGL LGT RAIN 67 66 97 W5 29.88R  
HALEYVILLE CLOUDY 62 61 96 NW6 29.89R  
JACKSON TN FAIR 54 44 69 N14 29.98R  
MEMPHIS FAIR 55 46 71 N17 30.00R  
NASHVILLE CLOUDY 56 49 77 NW13 29.90R  
OXFORD MS CLOUDY 55 54 94 N8G16 29.97R  
ROME LGT RAIN 63 61 93 W3 29.81S FOG  
SAVANNAH CLOUDY 57 54 88 N14 29.91R  
SELMER CLOUDY 55 50 82 N9G18 29.93R  
TUPELO CLOUDY 64 59 83 N14 29.91R  
TUSCALOOSA LGT RAIN 68 67 96 CALM 29.86R FOG  

 
 
 
 
CLICK HERE TO GO TO PREVIOUS BULLETINS.

The Nexlab AL Page
The Nexlab TN Page Main Text Page